Date,TemperatureHighF,TemperatureAvgF,TemperatureLowF,DewpointHighF,DewpointAvgF,DewpointLowF,HumidityHigh,HumidityAvg,HumidityLow,PressureMaxIn,PressureMinIn,WindSpeedMaxMPH,WindSpeedAvgMPH,GustSpeedMaxMPH,PrecipitationSumIn
2013-3-1,65.0,48.3,20.0,28.0,25.5,18.0,90,46,22,30.49,30.31,7,3,9,0.00
2013-3-2,67.0,50.7,25.0,30.0,23.6,18.0,91,41,15,30.37,30.06,16,7,32,0.00
2013-3-3,52.0,44.1,32.0,40.0,35.8,25.0,96,74,34,30.06,29.97,12,6,21,0.00
2013-3-4,59.0,38.7,24.0,39.0,30.7,23.0,99,78,31,30.09,29.97,6,3,9,0.00
2013-3-5,58.0,45.6,24.0,31.0,25.1,22.0,96,49,24,30.00,29.66,24,13,35,0.00
2013-3-6,46.0,36.8,27.0,32.0,24.2,18.0,95,62,36,29.90,29.64,32,16,48,0.00
2013-3-7,39.0,33.8,27.0,32.0,28.3,19.0,97,82,57,29.90,29.79,8,4,12,0.00
2013-3-8,43.0,34.4,29.0,34.0,28.6,24.0,98,82,46,29.94,29.77,4,2,7,0.00
2013-3-9,52.0,37.7,21.0,28.0,18.8,6.0,94,56,16,30.36,29.94,12,5,19,0.00
2013-3-10,59.0,43.9,13.0,20.0,10.4,4.0,88,33,11,30.42,30.29,7,4,12,0.00
2013-3-11,65.0,50.6,20.0,24.0,16.2,11.0,85,32,13,30.35,30.14,6,4,11,0.00
2013-3-12,70.0,48.9,19.0,28.0,20.9,16.0,92,41,13,30.25,30.14,5,2,8,0.00
2013-3-13,75.0,55.6,23.0,28.0,22.7,17.0,91,36,11,30.26,30.15,13,6,20,0.00
2013-3-14,68.0,48.1,30.0,33.0,29.4,26.0,89,53,23,30.21,30.16,4,2,8,0.00
2013-3-15,69.0,57.2,44.0,28.0,23.8,18.0,49,30,14,30.09,30.06,12,8,19,0.00
2013-3-16,65.0,49.5,26.0,28.0,21.2,11.0,91,38,12,30.09,29.93,32,12,42,0.00
2013-3-17,62.0,50.1,27.0,22.0,16.4,10.0,66,28,13,30.06,30.00,14,6,21,0.00
2013-3-18,63.0,48.1,20.0,26.0,18.8,12.0,84,36,14,30.11,30.00,14,5,20,0.00
2013-3-19,61.0,51.0,38.0,33.0,27.5,17.0,66,41,26,30.11,30.01,17,9,27,0.00
2013-3-20,57.0,50.7,48.0,38.0,32.4,26.0,61,50,39,30.01,29.87,40,20,56,0.00
2013-3-21,58.0,45.8,30.0,29.0,21.7,10.0,68,40,20,30.03,29.92,19,8,34,0.00
2013-3-22,54.0,40.2,16.0,18.0,8.0,0.0,81,31,13,30.06,29.96,13,6,18,0.00
2013-3-23,54.0,38.5,13.0,14.0,10.3,5.0,73,34,18,30.19,30.00,14,5,19,0.00
2013-3-24,64.0,47.0,18.0,26.0,18.3,9.0,85,36,18,30.14,29.96,12,4,19,0.00
2013-3-25,66.0,49.3,22.0,24.0,16.6,8.0,89,34,10,30.02,29.89,19,7,31,0.00
2013-3-26,59.0,51.3,41.0,33.0,25.4,9.0,57,37,20,29.93,29.86,18,9,43,0.00
2013-3-27,63.0,48.4,23.0,33.0,29.5,22.0,95,53,27,29.97,29.89,20,8,31,0.00
2013-3-28,62.0,47.7,37.0,39.0,33.1,26.0,83,60,25,30.12,29.96,20,6,30,0.00
2013-3-29,67.0,45.6,25.0,37.0,30.9,25.0,98,64,22,30.20,30.09,8,3,12,0.00
2013-3-30,67.0,51.5,31.0,39.0,32.4,26.0,96,53,24,30.16,29.96,9,4,21,0.00
2013-3-31,55.0,48.7,40.0,40.0,34.4,29.0,83,59,38,30.02,29.92,16,7,24,0.00